Time,TemperatureF,DewpointF,PressureIn,WindDirection,WindDirectionDegrees,WindSpeedMPH,WindSpeedGustMPH,Humidity,HourlyPrecipIn,Conditions,Clouds,dailyrainin,SoftwareType,DateUTC
2013-08-30 01:02:00,63.0,51.0,29.84,North,3,2.0,-999.0,66,-99.99,,,0.00,weatherlink.com 1.10,2013-08-30 08:02:00,
2013-08-30 01:18:00,61.9,51.0,29.82,North,0,0.0,-999.0,68,-99.99,,,0.00,weatherlink.com 1.10,2013-08-30 08:18:00,
2013-08-30 01:33:00,60.7,51.0,29.83,North,0,0.0,-999.0,71,-99.99,,,0.00,weatherlink.com 1.10,2013-08-30 08:33:00,
2013-08-30 01:49:00,60.2,51.0,29.82,North,0,0.0,-999.0,71,-99.99,,,0.00,weatherlink.com 1.10,2013-08-30 08:49:00,
2013-08-30 02:03:00,60.2,51.0,29.82,North,0,0.0,-999.0,71,-99.99,,,0.00,weatherlink.com 1.10,2013-08-30 09:03:00,
2013-08-30 02:18:00,60.2,52.0,29.82,North,0,0.0,-999.0,73,-99.99,,,0.00,weatherlink.com 1.10,2013-08-30 09:18:00,
2013-08-30 02:33:00,60.2,52.0,29.82,North,0,0.0,-999.0,74,-99.99,,,0.00,weatherlink.com 1.10,2013-08-30 09:33:00,
2013-08-30 02:48:00,59.9,52.0,29.82,North,0,0.0,-999.0,75,-99.99,,,0.00,weatherlink.com 1.10,2013-08-30 09:48:00,
2013-08-30 03:03:00,61.3,52.0,29.80,NNE,32,0.0,-999.0,71,-99.99,,,0.00,weatherlink.com 1.10,2013-08-30 10:03:00,
2013-08-30 03:18:00,62.5,49.0,29.80,NNE,27,0.0,-999.0,62,-99.99,,,0.00,weatherlink.com 1.10,2013-08-30 10:18:00,
2013-08-30 03:33:00,62.9,45.0,29.80,North,0,0.0,-999.0,53,-99.99,,,0.00,weatherlink.com 1.10,2013-08-30 10:33:00,
2013-08-30 03:48:00,63.6,46.0,29.80,North,0,0.0,-999.0,54,-99.99,,,0.00,weatherlink.com 1.10,2013-08-30 10:48:00,
2013-08-30 04:03:00,64.3,46.0,29.79,NE,48,0.0,-999.0,52,-99.99,,,0.00,weatherlink.com 1.10,2013-08-30 11:03:00,
2013-08-30 04:18:00,64.6,49.0,29.79,NE,37,0.0,-999.0,57,-99.99,,,0.00,weatherlink.com 1.10,2013-08-30 11:18:00,
2013-08-30 04:33:00,64.4,48.0,29.79,North,10,0.0,-999.0,55,-99.99,,,0.00,weatherlink.com 1.10,2013-08-30 11:33:00,
2013-08-30 04:48:00,64.4,47.0,29.79,NE,34,0.0,-999.0,54,-99.99,,,0.00,weatherlink.com 1.10,2013-08-30 11:48:00,
2013-08-30 05:03:00,64.8,48.0,29.79,NE,38,0.0,-999.0,54,-99.99,,,0.00,weatherlink.com 1.10,2013-08-30 12:03:00,
2013-08-30 05:18:00,64.3,48.0,29.79,NE,40,0.0,-999.0,56,-99.99,,,0.00,weatherlink.com 1.10,2013-08-30 12:18:00,
2013-08-30 05:33:00,64.6,48.0,29.79,NNE,14,0.0,-999.0,56,-99.99,,,0.00,weatherlink.com 1.10,2013-08-30 12:33:00,
2013-08-30 05:49:00,65.1,48.0,29.79,NE,47,0.0,-999.0,54,-99.99,,,0.00,weatherlink.com 1.10,2013-08-30 12:49:00,
2013-08-30 06:03:00,65.7,48.0,29.79,NE,35,0.0,-999.0,53,-99.99,,,0.00,weatherlink.com 1.10,2013-08-30 13:03:00,
2013-08-30 06:18:00,67.0,49.0,29.82,East,97,5.0,-999.0,52,-99.99,,,0.00,weatherlink.com 1.10,2013-08-30 13:18:00,
2013-08-30 06:33:00,69.3,49.0,29.81,ENE,58,5.0,-999.0,49,-99.99,,,0.00,weatherlink.com 1.10,2013-08-30 13:33:00,
2013-08-30 06:48:00,69.5,49.0,29.80,East,95,0.0,-999.0,48,-99.99,,,0.00,weatherlink.com 1.10,2013-08-30 13:48:00,
2013-08-30 07:03:00,68.7,49.0,29.82,East,95,0.0,-999.0,49,-99.99,,,0.00,weatherlink.com 1.10,2013-08-30 14:03:00,
2013-08-30 07:18:00,68.5,49.0,29.83,East,95,0.0,-999.0,50,-99.99,,,0.00,weatherlink.com 1.10,2013-08-30 14:18:00,
2013-08-30 07:33:00,68.7,49.0,29.83,East,93,0.0,-999.0,50,-99.99,,,0.00,weatherlink.com 1.10,2013-08-30 14:33:00,
2013-08-30 07:48:00,69.8,50.0,29.83,East,93,0.0,-999.0,49,-99.99,,,0.00,weatherlink.com 1.10,2013-08-30 14:48:00,
2013-08-30 08:03:00,71.8,50.0,29.82,East,93,0.0,-999.0,46,-99.99,,,0.00,weatherlink.com 1.10,2013-08-30 15:03:00,
2013-08-30 08:18:00,72.5,50.0,29.83,East,93,0.0,-999.0,46,-99.99,,,0.00,weatherlink.com 1.10,2013-08-30 15:18:00,
2013-08-30 08:33:00,73.9,51.0,29.83,East,93,0.0,-999.0,44,-99.99,,,0.00,weatherlink.com 1.10,2013-08-30 15:33:00,
2013-08-30 08:48:00,74.4,50.0,29.83,East,93,0.0,-999.0,43,-99.99,,,0.00,weatherlink.com 1.10,2013-08-30 15:48:00,
2013-08-30 09:03:00,74.9,50.0,29.82,East,93,0.0,-999.0,42,-99.99,,,0.00,weatherlink.com 1.10,2013-08-30 16:03:00,
2013-08-30 09:18:00,75.1,50.0,29.83,East,93,0.0,-999.0,42,-99.99,,,0.00,weatherlink.com 1.10,2013-08-30 16:18:00,
2013-08-30 09:33:00,75.6,51.0,29.83,NW,304,0.0,-999.0,42,-99.99,,,0.00,weatherlink.com 1.10,2013-08-30 16:33:00,
2013-08-30 09:48:00,75.6,50.0,29.83,WNW,302,1.0,-999.0,40,-99.99,,,0.00,weatherlink.com 1.10,2013-08-30 16:48:00,
2013-08-30 10:03:00,75.8,51.0,29.83,WNW,299,2.0,-999.0,42,-99.99,,,0.00,weatherlink.com 1.10,2013-08-30 17:03:00,
2013-08-30 10:18:00,75.5,52.0,29.84,WNW,292,2.0,-999.0,44,-99.99,,,0.00,weatherlink.com 1.10,2013-08-30 17:18:00,
2013-08-30 10:48:00,77.2,52.0,29.83,WNW,299,6.0,-999.0,41,-99.99,,,0.00,weatherlink.com 1.10,2013-08-30 17:48:00,
2013-08-30 11:03:00,76.9,52.0,29.84,WNW,285,1.0,-999.0,42,-99.99,,,0.00,weatherlink.com 1.10,2013-08-30 18:03:00,
2013-08-30 11:18:00,77.4,51.0,29.85,WNW,291,7.0,-999.0,40,-99.99,,,0.00,weatherlink.com 1.10,2013-08-30 18:18:00,
2013-08-30 11:33:00,77.7,51.0,29.85,WNW,287,7.0,-999.0,39,-99.99,,,0.00,weatherlink.com 1.10,2013-08-30 18:33:00,
2013-08-30 11:48:00,78.3,51.0,29.86,WNW,285,11.0,-999.0,39,-99.99,,,0.00,weatherlink.com 1.10,2013-08-30 18:48:00,
2013-08-30 12:03:00,80.1,51.0,29.84,WNW,296,0.0,-999.0,36,-99.99,,,0.00,weatherlink.com 1.10,2013-08-30 19:03:00,
2013-08-30 12:17:00,78.5,51.0,29.84,West,280,5.0,-999.0,39,-99.99,,,0.00,weatherlink.com 1.10,2013-08-30 19:17:00,
2013-08-30 12:32:00,79.9,52.0,29.83,West,267,1.0,-999.0,38,-99.99,,,0.00,weatherlink.com 1.10,2013-08-30 19:32:00,
2013-08-30 12:47:00,80.1,54.0,29.82,East,90,0.0,-999.0,40,-99.99,,,0.00,weatherlink.com 1.10,2013-08-30 19:47:00,
2013-08-30 13:03:00,80.5,53.0,29.82,NNW,344,0.0,-999.0,39,-99.99,,,0.00,weatherlink.com 1.10,2013-08-30 20:03:00,
2013-08-30 13:17:00,82.0,52.0,29.81,WNW,294,3.0,-999.0,35,-99.99,,,0.00,weatherlink.com 1.10,2013-08-30 20:17:00,
2013-08-30 13:32:00,79.0,51.0,29.82,SSE,158,6.0,-999.0,38,-99.99,,,0.00,weatherlink.com 1.10,2013-08-30 20:32:00,
2013-08-30 13:47:00,77.0,53.0,29.84,NE,49,0.0,-999.0,43,-99.99,,,0.00,weatherlink.com 1.10,2013-08-30 20:47:00,
2013-08-30 14:03:00,77.9,53.0,29.83,NE,45,0.0,-999.0,42,-99.99,,,0.00,weatherlink.com 1.10,2013-08-30 21:03:00,
2013-08-30 14:17:00,78.3,53.0,29.82,East,89,0.0,-999.0,41,-99.99,,,0.00,weatherlink.com 1.10,2013-08-30 21:17:00,
2013-08-30 14:32:00,78.3,53.0,29.81,ENE,71,0.0,-999.0,41,-99.99,,,0.00,weatherlink.com 1.10,2013-08-30 21:32:00,
2013-08-30 14:47:00,78.6,53.0,29.80,NE,40,0.0,-999.0,41,-99.99,,,0.00,weatherlink.com 1.10,2013-08-30 21:47:00,
2013-08-30 15:03:00,77.9,53.0,29.81,NNE,18,0.0,-999.0,42,-99.99,,,0.00,weatherlink.com 1.10,2013-08-30 22:03:00,
2013-08-30 15:18:00,77.2,53.0,29.79,ENE,62,0.0,-999.0,43,-99.99,,,0.00,weatherlink.com 1.10,2013-08-30 22:18:00,
2013-08-30 15:32:00,78.5,53.0,29.79,ESE,120,9.0,-999.0,41,-99.99,,,0.00,weatherlink.com 1.10,2013-08-30 22:32:00,
2013-08-30 15:47:00,74.8,53.0,29.80,ESE,107,2.0,-999.0,46,-99.99,,,0.00,weatherlink.com 1.10,2013-08-30 22:47:00,
2013-08-30 16:02:00,78.6,52.0,29.78,WSW,254,0.0,-999.0,40,-99.99,,,0.00,weatherlink.com 1.10,2013-08-30 23:02:00,
2013-08-30 16:17:00,77.7,53.0,29.78,East,82,3.0,-999.0,42,-99.99,,,0.00,weatherlink.com 1.10,2013-08-30 23:17:00,
2013-08-30 16:32:00,77.0,53.0,29.77,NW,315,0.0,-999.0,43,-99.99,,,0.00,weatherlink.com 1.10,2013-08-30 23:32:00,
2013-08-30 16:47:00,77.4,52.0,29.78,NNW,336,0.0,-999.0,41,-99.99,,,0.00,weatherlink.com 1.10,2013-08-30 23:47:00,
2013-08-30 17:02:00,77.7,51.0,29.78,NW,320,0.0,-999.0,39,-99.99,,,0.00,weatherlink.com 1.10,2013-08-31 00:02:00,
2013-08-30 17:17:00,77.0,53.0,29.77,WNW,301,0.0,-999.0,43,-99.99,,,0.00,weatherlink.com 1.10,2013-08-31 00:17:00,
2013-08-30 17:32:00,77.0,51.0,29.78,WNW,294,2.0,-999.0,41,-99.99,,,0.00,weatherlink.com 1.10,2013-08-31 00:32:00,
2013-08-30 17:47:00,76.2,51.0,29.78,West,278,1.0,-999.0,42,-99.99,,,0.00,weatherlink.com 1.10,2013-08-31 00:47:00,
2013-08-30 18:02:00,76.0,51.0,29.78,NW,308,2.0,-999.0,42,-99.99,,,0.00,weatherlink.com 1.10,2013-08-31 01:02:00,
2013-08-30 18:17:00,74.4,50.0,29.78,West,265,0.0,-999.0,43,-99.99,,,0.00,weatherlink.com 1.10,2013-08-31 01:17:00,
2013-08-30 18:32:00,73.2,50.0,29.78,WNW,288,4.0,-999.0,44,-99.99,,,0.00,weatherlink.com 1.10,2013-08-31 01:32:00,
2013-08-30 18:48:00,72.2,50.0,29.79,West,267,4.0,-999.0,45,-99.99,,,0.00,weatherlink.com 1.10,2013-08-31 01:48:00,
2013-08-30 19:03:00,70.5,50.0,29.79,WNW,282,3.0,-999.0,49,-99.99,,,0.00,weatherlink.com 1.10,2013-08-31 02:03:00,
2013-08-30 19:17:00,69.3,50.0,29.79,WNW,287,5.0,-999.0,51,-99.99,,,0.00,weatherlink.com 1.10,2013-08-31 02:17:00,
2013-08-30 19:32:00,68.8,50.0,29.80,WNW,287,0.0,-999.0,52,-99.99,,,0.00,weatherlink.com 1.10,2013-08-31 02:32:00,
2013-08-30 19:47:00,68.2,50.0,29.80,WNW,287,2.0,-999.0,53,-99.99,,,0.00,weatherlink.com 1.10,2013-08-31 02:47:00,
2013-08-30 20:02:00,68.0,50.0,29.80,WNW,288,0.0,-999.0,52,-99.99,,,0.00,weatherlink.com 1.10,2013-08-31 03:02:00,
2013-08-30 20:17:00,67.7,49.0,29.79,West,261,0.0,-999.0,52,-99.99,,,0.00,weatherlink.com 1.10,2013-08-31 03:17:00,
2013-08-30 20:32:00,68.0,49.0,29.79,NW,304,0.0,-999.0,51,-99.99,,,0.00,weatherlink.com 1.10,2013-08-31 03:32:00,
2013-08-30 20:48:00,68.0,48.0,29.79,WNW,299,5.0,-999.0,49,-99.99,,,0.00,weatherlink.com 1.10,2013-08-31 03:48:00,
2013-08-30 21:02:00,67.8,48.0,29.80,NW,311,0.0,-999.0,50,-99.99,,,0.00,weatherlink.com 1.10,2013-08-31 04:02:00,
2013-08-30 21:17:00,67.8,45.0,29.79,NW,311,2.0,-999.0,44,-99.99,,,0.00,weatherlink.com 1.10,2013-08-31 04:17:00,
2013-08-30 21:32:00,68.0,45.0,29.80,West,270,5.0,-999.0,43,-99.99,,,0.00,weatherlink.com 1.10,2013-08-31 04:32:00,
2013-08-30 21:47:00,68.0,50.0,29.79,WNW,291,0.0,-999.0,52,-99.99,,,0.00,weatherlink.com 1.10,2013-08-31 04:47:00,
2013-08-30 22:02:00,67.0,52.0,29.80,WNW,289,0.0,-999.0,59,-99.99,,,0.00,weatherlink.com 1.10,2013-08-31 05:02:00,
2013-08-30 22:17:00,67.2,49.0,29.79,WNW,289,1.0,-999.0,53,-99.99,,,0.00,weatherlink.com 1.10,2013-08-31 05:17:00,
2013-08-30 22:32:00,68.0,47.0,29.80,WNW,295,2.0,-999.0,47,-99.99,,,0.00,weatherlink.com 1.10,2013-08-31 05:32:00,
2013-08-30 22:47:00,67.5,52.0,29.78,WNW,295,0.0,-999.0,57,-99.99,,,0.00,weatherlink.com 1.10,2013-08-31 05:47:00,
2013-08-30 23:02:00,67.2,51.0,29.79,WNW,295,0.0,-999.0,57,-99.99,,,0.00,weatherlink.com 1.10,2013-08-31 06:02:00,
2013-08-30 23:17:00,68.2,48.0,29.77,WNW,295,0.0,-999.0,49,-99.99,,,0.00,weatherlink.com 1.10,2013-08-31 06:17:00,
2013-08-30 23:32:00,67.7,48.0,29.77,SW,232,0.0,-999.0,50,-99.99,,,0.00,weatherlink.com 1.10,2013-08-31 06:32:00,
2013-08-30 23:47:00,68.2,46.0,29.77,WNW,285,0.0,-999.0,45,-99.99,,,0.00,weatherlink.com 1.10,2013-08-31 06:47:00,